TimeMDT,TemperatureF,Dew PointF,Humidity,Sea Level PressureIn,VisibilityMPH,Wind Direction,Wind SpeedMPH,Gust SpeedMPH,PrecipitationIn,Events,Conditions,WindDirDegrees,DateUTC
12:53 AM,73.0,50.0,44,30.01,10.0,WSW,19.6,25.3,N/A,,Overcast,250,2013-09-04 06:53:00
1:53 AM,69.1,59.0,70,30.03,10.0,WNW,6.9,-,0.01,Rain,Light Rain,290,2013-09-04 07:53:00
2:53 AM,66.9,60.1,79,30.02,10.0,NNW,10.4,-,0.00,,Mostly Cloudy,340,2013-09-04 08:53:00
3:53 AM,66.9,59.0,76,30.04,10.0,East,5.8,-,N/A,,Scattered Clouds,90,2013-09-04 09:53:00
4:53 AM,63.0,59.0,87,30.04,10.0,WSW,5.8,-,N/A,,Clear,240,2013-09-04 10:53:00
5:53 AM,62.1,59.0,90,30.04,10.0,SSW,6.9,-,N/A,,Clear,210,2013-09-04 11:53:00
6:53 AM,61.0,57.9,90,30.06,10.0,SSW,5.8,-,N/A,,Clear,200,2013-09-04 12:53:00
7:53 AM,64.9,59.0,81,30.06,10.0,Calm,Calm,-,N/A,,Clear,0,2013-09-04 13:53:00
8:53 AM,69.1,59.0,70,30.08,10.0,Calm,Calm,-,N/A,,Clear,0,2013-09-04 14:53:00
9:53 AM,73.9,57.9,57,30.08,10.0,Calm,Calm,-,N/A,,Clear,0,2013-09-04 15:53:00
10:53 AM,79.0,57.9,48,30.06,10.0,North,5.8,-,N/A,,Clear,10,2013-09-04 16:53:00
11:53 AM,82.9,57.0,41,30.02,10.0,Variable,4.6,-,N/A,,Clear,0,2013-09-04 17:53:00
12:53 PM,86.0,54.0,33,30.00,10.0,Variable,3.5,-,N/A,,Clear,0,2013-09-04 18:53:00
1:53 PM,89.1,53.1,29,29.99,10.0,Variable,4.6,-,N/A,,Clear,0,2013-09-04 19:53:00
2:53 PM,90.0,51.1,26,29.96,10.0,NNW,5.8,-,N/A,,Clear,340,2013-09-04 20:53:00
3:53 PM,91.9,50.0,24,29.94,10.0,North,6.9,-,N/A,,Clear,360,2013-09-04 21:53:00
4:53 PM,93.0,50.0,23,29.93,10.0,North,10.4,-,N/A,,Clear,360,2013-09-04 22:53:00
5:53 PM,90.0,52.0,27,29.93,10.0,North,12.7,-,N/A,,Clear,360,2013-09-04 23:53:00
6:53 PM,86.0,51.1,30,29.94,10.0,North,6.9,-,N/A,,Clear,10,2013-09-05 00:53:00
7:53 PM,81.0,52.0,36,29.95,10.0,NNE,5.8,-,N/A,,Clear,20,2013-09-05 01:53:00
8:53 PM,73.9,55.0,52,29.98,10.0,NE,3.5,-,N/A,,Clear,50,2013-09-05 02:53:00
9:53 PM,75.9,54.0,46,29.99,10.0,NNW,6.9,-,N/A,,Clear,330,2013-09-05 03:53:00
10:53 PM,72.0,53.1,51,29.99,10.0,Calm,Calm,-,N/A,,Clear,0,2013-09-05 04:53:00
11:53 PM,70.0,54.0,57,30.00,10.0,South,8.1,-,N/A,,Clear,180,2013-09-05 05:53:00